Location: Monrovia
(34.7865°N, 86.7139°W)
Time: 21:57:48
(UTC+00:00)

SPOT 5 - Pass Details

Date: 14 July 2020
Orbit: 622 x 816 km, 98.3° (Epoch: 08 August)

Event Time Altitude Azimuth Distance (km) Brightness Sun altitude
Exits shadow 03:41:55 85° 215° (SW) 723 2.7 -25.6°
Maximum altitude 03:42:00 86° 255° (WSW) 721 2.7 -25.6°
Drops below altitude 10° 03:46:42 10° 347° (NNW) 2,140 6.2 -26.2°
Sets 03:48:53 0° 347° (NNW) 3,031 7.2 -26.4°
